Wind_Speed
5 6 7 8 9 11 12 12 13 13 14 15 15 15 15 14 14 14 13 12 13 13 12 12 10 10 7 9 7 9 5 20 20 6 18 8 3 7 21 22 19 15 9 11 12
8 9 9 11 12 13 13 13 12 10 8 7 6 6 7 8 8 8 9 7 7 8 8 10 9 11 11 9 10 12 11 21 23 20 14 9 12 9 8 20 29 16 13 12 13
10 12 12 12 13 13 11 6 3 4 5 5 6 6 8 8 7 6 6 7 7 7 8 8 8 9 10 10 7 10 17 13 30 31 21 12 14 14 5 7 27 20 9 15 8
11 12 13 12 8 5 2 2 3 6 7 8 8 8 8 9 7 8 7 7 7 6 8 10 10 11 11 12 11 10 11 16 16 22 17 14 14 15 15 10 18 26 15 11 9
14 13 9 4 3 1 2 4 6 7 6 7 7 8 10 9 7 6 7 6 7 9 9 10 12 14 15 15 16 16 13 14 18 19 19 19 18 17 17 11 11 24 20 20 12
11 7 4 3 2 4 6 8 10 11 10 11 10 10 11 10 9 10 6 7 9 9 10 13 15 17 17 19 19 20 21 20 21 21 18 17 19 19 17 11 16 23 29 25 17
7 6 4 4 6 7 9 12 13 13 14 14 13 12 13 13 11 9 9 12 10 12 14 15 16 19 18 19 23 24 25 24 24 20 19 18 16 19 19 15 14 29 30 30 24
7 6 5 5 8 12 14 14 15 15 15 14 14 14 15 16 13 13 13 14 16 15 16 19 18 17 21 22 21 23 26 27 22 21 15 17 26 18 18 19 12 25 27 26 26
9 8 8 9 13 15 15 15 15 15 14 14 15 17 17 18 17 17 16 17 17 19 20 22 23 23 24 25 26 22 26 26 25 18 17 19 23 20 19 23 20 18 21 26 37
11 12 12 14 17 16 16 16 16 17 18 18 19 20 20 20 20 20 20 20 20 21 23 25 26 25 27 28 28 28 27 24 24 20 18 24 24 22 26 25 26 24 25 28 25
14 15 17 19 20 18 19 19 18 19 19 19 19 20 20 22 22 22 22 23 24 25 25 27 27 27 29 29 30 32 34 34 26 24 29 31 29 26 28 24 26 30 33 36 28
17 19 20 21 21 19 19 19 19 19 19 19 20 21 22 22 23 22 24 26 25 26 28 29 29 32 32 31 32 31 32 33 32 29 30 30 40 36 30 33 33 33 35 38 42
20 22 23 23 22 21 20 21 22 23 23 21 23 23 22 22 22 24 24 25 27 28 29 28 28 29 28 29 31 31 35 33 34 33 33 31 39 34 32 34 37 37 36 38 38
25 25 25 24 24 23 24 25 26 27 29 25 22 22 22 23 25 25 25 26 28 28 29 28 29 31 29 30 30 32 27 32 32 33 36 23 38 34 30 28 28 30 24 22 27
27 27 26 26 26 27 27 27 27 27 27 31 24 23 24 26 30 29 26 28 28 28 30 28 29 30 30 30 29 29 27 29 31 31 32 33 29 27 27 32 41 41 32 27 26
28 28 28 29 29 29 29 29 27 25 29 30 30 26 28 31 31 28 29 25 28 27 28 31 29 31 34 33 30 29 27 28 22 26 25 27 36 37 37 36 50 35 41 14 21
23 22 21 21 21 22 22 21 21 21 25 31 26 27 28 27 34 34 26 30 33 33 29 25 19 13 28 34 30 26 20 20 20 20 24 26 29 35 33 32 43 28 27 23 17
25 25 24 24 23 21 20 20 22 22 26 23 24 25 26 27 28 28 31 30 32 39 29 25 5 16 21 31 27 21 15 16 20 24 27 21 26 22 30 28 36 29 27 19 27
30 28 28 28 26 24 23 23 27 27 28 27 27 30 27 32 29 28 30 27 25 36 30 24 24 23 31 20 22 18 20 19 24 21 24 25 30 17 20 18 20 33 18 18 29
33 33 29 30 29 28 27 26 30 29 27 27 26 27 25 21 33 27 28 28 34 37 32 28 29 24 22 18 18 19 18 18 20 24 24 25 24 27 26 12 20 31 33 36 42
35 35 33 31 33 32 30 30 34 33 28 30 30 29 29 30 32 29 26 23 39 39 33 28 31 28 23 16 14 21 20 26 32 28 24 19 20 32 29 25 30 34 30 44 45
36 37 35 35 36 35 35 36 35 33 37 31 33 32 33 32 33 29 27 25 39 38 34 31 31 31 26 21 19 22 25 32 34 28 27 31 25 33 30 28 26 32 42 18 41
36 36 41 34 36 36 37 39 39 35 37 37 36 34 34 34 33 32 31 31 36 37 39 33 31 32 27 13 22 31 34 33 34 37 31 33 13 34 41 43 29 30 41 29 7
39 37 39 36 36 38 37 38 41 39 35 36 37 36 37 36 34 34 33 32 34 38 39 34 32 31 28 25 33 33 23 25 21 19 25 25 25 37 40 32 41 41 35 34 18
39 39 38 38 37 35 35 38 39 38 42 38 37 36 37 38 38 37 34 34 34 39 36 35 35 31 29 29 29 30 33 29 25 33 34 28 34 46 38 41 35 31 42 22 22
40 39 39 36 37 37 35 35 37 37 38 40 41 35 37 40 40 38 35 36 35 35 35 34 34 33 29 28 27 28 25 27 34 30 35 34 44 29 28 19 22 38 20 16 21
41 39 38 37 37 37 36 37 37 38 38 38 41 38 40 39 45 37 33 35 34 34 33 34 33 33 29 27 28 30 21 20 30 35 42 38 42 45 44 24 22 23 17 21 21
Wind_Direction
328 319 313 305 298 294 291 287 287 292 296 298 300 301 301 304 302 305 307 304 303 307 310 313 316 305 300 301 294 285 300 305 328 139 124 332 7 336 338 334 333 337 8 0 346
310 307 304 301 294 288 289 296 303 308 307 307 320 325 340 338 346 358 355 356 348 337 336 333 330 317 317 306 303 296 286 311 312 332 0 64 300 348 2 314 313 302 332 356 351
303 300 296 295 294 297 306 328 42 46 10 5 2 2 4 5 13 15 6 15 15 8 10 2 2 349 342 341 329 312 291 285 304 334 346 305 278 307 296 323 301 282 359 331 342
292 293 296 298 299 308 5 17 10 10 350 343 343 346 350 358 14 350 342 346 345 350 351 346 343 340 339 335 334 326 314 294 280 251 257 254 258 268 277 291 303 300 17 326 326
294 297 300 297 291 314 347 339 338 341 331 331 334 331 332 339 337 322 311 317 320 321 327 330 330 327 325 320 314 315 306 302 294 291 281 279 271 265 265 288 296 302 301 291 313
287 281 281 262 268 308 313 318 326 327 310 308 312 318 322 332 323 317 298 300 309 310 318 319 318 318 319 310 309 303 302 300 295 297 298 284 276 263 259 279 277 280 286 290 291
257 250 244 245 279 295 305 312 317 316 308 303 301 305 313 311 302 304 307 303 301 303 307 308 308 307 306 306 302 304 304 302 300 295 286 290 269 261 254 254 259 275 284 291 282
237 237 257 281 298 304 305 306 307 313 311 308 301 300 307 301 293 296 299 299 302 301 303 303 306 305 307 308 306 302 302 302 301 293 294 278 280 280 258 255 237 233 272 283 272
236 247 267 291 307 303 303 301 301 306 303 305 305 302 306 301 292 289 295 299 296 298 301 305 305 307 310 310 310 307 305 305 304 309 289 264 271 268 257 245 244 291 251 271 281
248 264 274 287 302 298 293 295 298 303 302 301 302 301 304 302 294 289 292 297 300 300 299 299 299 303 306 308 314 313 310 302 286 267 250 275 277 261 266 246 224 241 252 259 270
263 276 281 290 300 300 293 295 295 298 298 295 296 300 301 300 297 292 292 297 301 302 302 299 299 304 303 307 313 314 314 312 305 286 253 235 229 244 236 254 250 242 245 263 251
268 279 287 295 297 293 293 297 297 296 294 298 299 299 300 298 294 294 295 297 299 303 302 299 300 301 303 310 313 312 309 309 304 296 282 270 255 241 244 245 246 242 241 246 243
274 281 285 288 289 293 298 297 295 294 292 291 292 293 294 294 296 297 296 300 301 302 301 300 304 303 303 309 307 310 307 305 301 297 289 287 284 273 261 251 250 243 243 249 256
278 279 281 284 288 293 293 294 294 295 293 292 290 289 288 295 300 300 302 302 301 301 301 306 303 300 302 304 303 308 300 299 298 296 293 273 276 272 268 258 262 263 273 264 257
279 280 281 284 286 286 289 290 292 293 293 301 297 292 292 296 301 300 300 302 300 301 301 306 303 300 300 299 305 306 298 296 296 294 303 307 281 282 254 244 241 228 223 250 253
278 280 281 281 281 283 284 285 287 288 286 287 294 296 294 292 292 295 300 297 294 295 296 297 302 304 305 307 315 309 306 306 323 331 302 312 288 280 275 250 242 229 212 213 264
284 286 289 290 288 286 285 286 288 286 288 289 297 294 295 296 301 304 305 308 305 302 305 308 314 288 288 305 315 317 322 316 302 289 288 284 289 304 308 291 237 235 195 187 224
281 282 283 282 282 284 287 290 290 287 286 301 295 294 296 294 297 295 300 303 300 297 309 305 271 252 275 298 304 313 267 282 305 302 293 290 288 294 298 290 233 235 188 209 179
278 277 278 277 278 281 284 285 280 282 290 291 288 287 292 292 289 292 295 292 266 290 300 298 287 274 276 293 284 301 277 281 281 304 300 294 288 317 308 278 254 224 188 207 210
278 278 276 277 279 279 280 281 281 281 288 285 285 285 288 279 289 296 293 290 287 293 302 302 297 296 290 273 286 299 279 273 270 285 287 305 308 308 308 267 193 240 216 201 206
278 278 279 279 279 279 278 277 278 281 279 283 283 284 284 281 282 285 281 273 284 293 301 296 298 302 296 285 287 263 290 262 252 251 262 287 291 274 288 245 247 256 226 221 221
281 280 280 277 278 278 278 276 277 279 282 279 281 283 283 282 285 283 279 275 283 291 293 293 299 295 294 291 240 256 261 259 262 261 259 260 248 268 271 250 237 250 247 345 230
282 280 280 276 277 276 277 277 275 276 278 281 280 278 279 282 281 280 276 274 285 288 288 298 295 294 294 296 261 262 252 263 260 276 252 270 292 288 289 274 260 262 261 279 221
278 278 276 275 275 273 273 274 276 277 270 274 274 276 279 279 276 276 278 278 282 282 290 295 291 290 287 273 235 252 259 260 270 267 265 273 303 284 284 267 286 267 271 271 244
274 272 273 276 275 271 270 269 270 273 275 269 271 273 274 274 273 276 277 276 278 283 289 292 291 287 285 281 269 261 261 252 267 284 287 276 284 283 282 273 298 269 248 254 229
271 271 273 268 269 272 270 268 267 266 267 271 273 271 270 271 275 271 276 280 279 281 285 287 285 283 284 279 275 270 258 269 251 259 261 260 264 283 276 293 301 291 312 222 229
269 269 269 267 264 264 266 266 264 264 265 266 269 268 270 269 270 280 278 276 278 280 280 279 279 281 285 278 274 272 278 269 242 241 245 247 252 266 303 283 293 292 269 267 250
Height
5923 5923 5922 5921 5920 5919 5918 5918 5917 5917 5916 5915 5914 5914 5913 5912 5912 5911 5911 5912 5910 5910 5909 5909 5910 5909 5910 5908 5907 5904 5905 5901 5905 5905 5896 5912 5914 5911 5903 5897 5899 5899 5898 5895 5893
5922 5921 5920 5920 5918 5918 5917 5916 5916 5915 5914 5914 5913 5912 5911 5911 5910 5910 5910 5909 5909 5908 5908 5908 5908 5907 5907 5908 5908 5905 5905 5902 5901 5896 5881 5905 5912 5912 5910 5902 5898 5900 5900 5897 5895
5920 5919 5918 5918 5916 5916 5915 5915 5914 5914 5914 5914 5913 5913 5912 5911 5911 5910 5909 5909 5908 5907 5907 5907 5906 5906 5905 5905 5906 5904 5906 5909 5903 5885 5903 5909 5910 5910 5907 5909 5896 5890 5897 5899 5895
5917 5917 5917 5916 5915 5914 5914 5915 5915 5914 5914 5914 5913 5912 5912 5911 5912 5910 5909 5908 5908 5907 5907 5906 5905 5905 5904 5903 5903 5903 5903 5903 5905 5905 5903 5905 5907 5906 5903 5905 5904 5891 5882 5899 5895
5915 5915 5915 5915 5914 5914 5914 5914 5914 5914 5913 5913 5912 5911 5911 5911 5910 5909 5908 5907 5907 5906 5906 5905 5904 5903 5902 5902 5901 5901 5901 5900 5899 5899 5900 5900 5899 5900 5900 5902 5905 5892 5888 5897 5894
5914 5913 5913 5914 5914 5914 5914 5914 5913 5912 5912 5911 5910 5910 5909 5909 5908 5907 5906 5906 5905 5905 5904 5903 5902 5901 5900 5899 5899 5898 5897 5898 5896 5895 5895 5895 5895 5896 5898 5901 5904 5899 5892 5893 5893
5912 5912 5913 5914 5914 5914 5913 5913 5912 5911 5910 5909 5908 5908 5907 5907 5906 5905 5905 5904 5904 5903 5902 5901 5899 5898 5898 5897 5895 5894 5893 5892 5892 5891 5891 5890 5892 5892 5895 5898 5902 5895 5895 5890 5891
5911 5911 5912 5913 5912 5912 5912 5911 5910 5909 5907 5906 5906 5905 5905 5904 5903 5902 5902 5902 5900 5900 5899 5897 5896 5895 5893 5893 5891 5889 5888 5887 5888 5886 5886 5890 5888 5890 5892 5895 5898 5889 5885 5887 5888
5910 5910 5910 5910 5910 5910 5909 5908 5907 5907 5906 5904 5903 5903 5903 5900 5900 5899 5899 5898 5898 5896 5895 5893 5892 5891 5889 5887 5886 5885 5883 5882 5882 5882 5884 5887 5887 5890 5890 5891 5892 5885 5888 5885 5885
5908 5908 5907 5907 5908 5907 5906 5905 5905 5904 5903 5902 5900 5901 5898 5897 5896 5895 5895 5894 5893 5893 5892 5890 5888 5886 5884 5882 5882 5879 5877 5877 5877 5880 5881 5883 5881 5884 5883 5884 5886 5887 5886 5885 5885
5905 5905 5904 5904 5904 5903 5903 5902 5903 5902 5900 5899 5898 5896 5895 5893 5892 5891 5890 5890 5889 5888 5886 5884 5884 5881 5879 5877 5875 5873 5871 5869 5871 5871 5870 5868 5870 5874 5877 5879 5879 5880 5882 5880 5881
5901 5901 5901 5900 5900 5900 5898 5897 5897 5897 5896 5895 5893 5892 5891 5889 5888 5887 5887 5886 5884 5882 5881 5879 5877 5874 5873 5872 5870 5868 5865 5864 5862 5862 5860 5860 5859 5860 5864 5866 5867 5869 5870 5871 5872
5897 5897 5897 5896 5896 5895 5894 5893 5891 5890 5891 5892 5889 5888 5887 5885 5883 5882 5882 5880 5878 5876 5875 5873 5873 5870 5868 5867 5864 5863 5859 5858 5855 5854 5851 5850 5846 5848 5851 5853 5856 5857 5859 5860 5861
5892 5893 5892 5892 5892 5890 5889 5887 5886 5884 5882 5886 5885 5884 5882 5880 5879 5877 5876 5875 5872 5871 5869 5869 5867 5864 5863 5862 5858 5857 5854 5851 5848 5847 5844 5846 5836 5839 5842 5845 5847 5848 5850 5850 5854
5887 5887 5887 5885 5885 5884 5883 5881 5880 5879 5877 5875 5877 5876 5876 5875 5872 5870 5872 5869 5867 5865 5864 5864 5862 5858 5856 5855 5853 5851 5848 5845 5842 5839 5835 5834 5830 5830 5832 5832 5830 5826 5836 5845 5848
5880 5879 5879 5879 5878 5878 5876 5875 5875 5875 5870 5870 5869 5870 5868 5867 5866 5866 5862 5864 5861 5860 5858 5857 5855 5851 5847 5848 5847 5842 5840 5836 5833 5831 5830 5828 5822 5820 5820 5818 5809 5819 5825 5829 5843
5873 5873 5872 5871 5873 5871 5870 5870 5870 5869 5868 5864 5865 5864 5863 5862 5858 5855 5858 5855 5852 5852 5853 5851 5850 5850 5843 5841 5839 5836 5834 5833 5834 5833 5831 5826 5816 5815 5808 5807 5806 5814 5820 5823 5835
5867 5866 5866 5866 5867 5866 5865 5865 5864 5864 5862 5861 5861 5859 5858 5857 5855 5855 5852 5851 5846 5842 5847 5845 5850 5844 5840 5836 5833 5833 5832 5830 5827 5827 5821 5818 5810 5808 5804 5799 5804 5809 5811 5818 5814
5860 5861 5859 5860 5860 5859 5860 5860 5857 5857 5857 5856 5855 5852 5853 5848 5851 5849 5846 5845 5843 5838 5841 5840 5838 5836 5833 5833 5831 5830 5828 5829 5825 5822 5818 5813 5808 5809 5801 5800 5801 5811 5808 5805 5809
5851 5851 5854 5852 5852 5852 5853 5852 5850 5850 5850 5850 5849 5848 5847 5846 5841 5843 5840 5839 5833 5830 5832 5832 5829 5829 5828 5826 5826 5824 5823 5821 5821 5817 5813 5812 5805 5805 5800 5801 5799 5794 5800 5801 5796
5843 5843 5844 5845 5844 5845 5845 5845 5843 5843 5845 5844 5842 5841 5840 5839 5836 5837 5836 5835 5825 5824 5826 5824 5822 5822 5820 5821 5823 5821 5817 5814 5809 5810 5807 5805 5805 5795 5793 5797 5788 5785 5787 5788 5784
5833 5833 5835 5835 5836 5836 5836 5835 5836 5836 5833 5837 5835 5833 5831 5830 5829 5829 5829 5825 5819 5819 5818 5818 5816 5812 5813 5814 5812 5810 5806 5805 5802 5806 5805 5799 5797 5788 5791 5793 5787 5783 5781 5775 5783
5824 5824 5822 5827 5826 5825 5825 5825 5826 5828 5826 5825 5824 5825 5823 5823 5822 5821 5819 5817 5813 5812 5808 5811 5808 5805 5806 5808 5803 5801 5799 5797 5799 5796 5796 5793 5792 5787 5783 5782 5782 5787 5777 5779 5778
5815 5815 5814 5817 5817 5816 5816 5816 5815 5815 5817 5816 5816 5815 5814 5814 5813 5812 5811 5810 5807 5803 5802 5802 5801 5798 5799 5798 5795 5791 5792 5794 5794 5791 5790 5788 5785 5779 5776 5781 5778 5776 5778 5774 5773
5804 5804 5805 5804 5805 5807 5808 5807 5807 5807 5804 5807 5806 5807 5805 5804 5803 5803 5802 5801 5800 5794 5795 5794 5791 5790 5790 5787 5785 5785 5784 5786 5789 5786 5784 5784 5778 5768 5774 5770 5762 5763 5768 5762 5770
5791 5793 5794 5796 5794 5794 5795 5797 5796 5797 5797 5795 5794 5797 5795 5793 5793 5792 5793 5792 5791 5789 5787 5785 5783 5781 5782 5780 5777 5776 5777 5776 5778 5780 5778 5778 5763 5760 5761 5770 5763 5761 5743 5749 5761
5778 5780 5782 5784 5784 5785 5785 5785 5785 5785 5787 5786 5785 5785 5784 5783 5779 5785 5784 5782 5782 5780 5779 5777 5775 5773 5773 5772 5770 5770 5770 5769 5767 5766 5763 5765 5761 5758 5761 5762 5758 5759 5753 5754 5759